This demonstration page uses our WeatherBlox Daily Observations layout. Learn more.

Left ArrowRight Arrow

39.08367, -84.50855

Hourly Observations for January 25, 2023

Temp ( °F °C ) Dew Point ( °F °C ) Humidity (%) Winds ( mph kmh ) Pressure ( in mb ) Visibility ( mi km ) Precip ( " mm )
12:53 am 00:53 Cloudy 35 1.7 32 0 88 88 SE 3 6 30.07 1018 10 16 0.00 0.00
1:14 am 01:14 Cloudy with Rain 36 2.2 32 0 85 85 S 8 13 30.09 1019 3 5 0.03 0.76
1:27 am 01:27 Cloudy with Heavy Rain 35 1.7 33 0.6 92 92 SE 6 9 30.10 1019 3 4 0.08 2.03
1:39 am 01:39 Cloudy with Rain 35 1.7 33 0.6 92 92 Calm 30.07 1018 3 5 0.13 3.30
2:31 am 02:31 Cloudy with Light Snow 33 0.6 33 0.6 100 100 Calm 30.07 1018 4 6 0.07 1.78
2:53 am 02:53 Cloudy with Light Rain 33 0.6 31 -0.6 92 92 N 7 11 30.00 1016 5 8 0.09 2.29
3:10 am 03:10 Cloudy with Light Rain 33 0.6 33 0.6 100 100 NNE 5 7 30.00 1016 5 8 0.02 0.51
3:21 am 03:21 Cloudy 33 0.6 32 0 96 96 NE 9 15 29.98 1015 10 16 0.02 0.51
3:36 am 03:36 Cloudy with Light Wintry Mix 33 0.6 33 0.6 100 100 NNE 5 7 29.98 1015 10 16 0.02 0.51
3:53 am 03:53 Cloudy 34 1.1 33 0.6 96 96 ENE 5 7 29.95 1014 10 16 0.02 0.51
4:53 am 04:53 Cloudy with Light Rain 34 1.1 33 0.6 96 96 NE 9 15 29.89 1012 8 13 0.01 0.25
5:09 am 05:09 Cloudy with Light Rain 34 1.1 33 0.6 96 96 NE 10 17 29.89 1012 10 16 0.01 0.13
5:53 am 05:53 Cloudy 35 1.7 33 0.6 92 92 ENE 10 17 29.82 1010 10 16 0.01 0.13
6:53 am 06:53 Cloudy with Light Rain 36 2.2 34 1.1 92 92 ENE 8 13 29.76 1008 10 16 0.02 0.51
7:37 am 07:37 Cloudy with Light Rain 36 2.2 34 1.1 92 92 NE 9 15 29.72 1007 6 10 0.03 0.76
7:53 am 07:53 Cloudy with Light Rain 36 2.2 34 1.1 92 92 ENE 9 15 29.67 1005 7 11 0.03 0.76
8:53 am 08:53 Cloudy with Light Rain 36 2.2 35 1.7 96 96 Calm 29.61 1003 9 14 0.02 0.51
9:53 am 09:53 Cloudy 39 3.9 36 2.2 89 89 VRB 3 6 29.56 1001 10 16 0.01 0.25
10:00 am 10:00 Cloudy 39 3.9 36 2.2 89 89 E 8 13 29.57 1001 10 16 0.00 0.00
10:18 am 10:18 Cloudy 40 4.4 37 2.8 89 89 SSE 9 15 29.56 1001 10 16 0.00 0.00
10:38 am 10:38 Cloudy 40 4.4 38 3.3 93 93 VRB 7 11 29.55 1001 10 16 0.00 0.00
10:53 am 10:53 Cloudy 41 5 38 3.3 89 89 S 6 9 29.53 1000 10 16 0.00 0.00
11:53 am 11:53 Cloudy 46 7.8 42 5.6 86 86 SSW 13 20 29.50 999 10 16 0.01 0.25
12:53 pm 12:53 Cloudy 49 9.4 45 7.2 86 86 SSW 10 17 29.46 998 10 16 0.01 0.13
1:53 pm 13:53 Cloudy with Light Rain 48 8.9 43 6.1 83 83 SW 26 43 29.47 998 10 16 0.02 0.51
2:38 pm 14:38 Cloudy 47 8.3 42 5.6 83 83 SW 20 31 29.50 999 10 16 0.01 0.13
2:53 pm 14:53 Cloudy 47 8.3 41 5 80 80 WSW 17 28 29.51 999 10 16 0.01 0.13
3:53 pm 15:53 Cloudy 42 5.6 36 2.2 79 79 WSW 22 35 29.58 1002 10 16 0.00 0.00
4:32 pm 16:32 Cloudy 40 4.4 32 0 73 73 WSW 21 33 29.63 1003 10 16 0.00 0.00
4:53 pm 16:53 Cloudy 40 4.4 32 0 73 73 WSW 22 35 29.64 1004 10 16 0.00 0.00
5:00 pm 17:00 Cloudy 39 3.9 32 0 76 76 WSW 21 33 29.66 1004 10 16 0.00 0.00
5:07 pm 17:07 Cloudy 39 3.9 32 0 76 76 WSW 23 37 29.67 1005 10 16 0.00 0.00
5:23 pm 17:23 Cloudy 39 3.9 33 0.6 79 79 SW 17 28 29.68 1005 10 16 0.00 0.00
5:30 pm 17:30 Cloudy 38 3.3 32 0 79 79 SW 21 33 29.68 1005 10 16 0.00 0.00
5:53 pm 17:53 Cloudy 38 3.3 33 0.6 82 82 WSW 16 26 29.69 1005 10 16 0.00 0.00
6:53 pm 18:53 Cloudy with Light Rain 37 2.8 33 0.6 85 85 WSW 14 22 29.73 1007 10 16 0.01 0.13
7:27 pm 19:27 Cloudy with Light Rain 37 2.8 34 1.1 89 89 WSW 17 28 29.76 1008 10 16 0.01 0.13
7:53 pm 19:53 Cloudy with Light Rain 36 2.2 34 1.1 92 92 WSW 15 24 29.76 1008 8 13 0.01 0.13
8:53 pm 20:53 Cloudy 36 2.2 34 1.1 92 92 SW 12 19 29.78 1008 10 16 0.01 0.25
9:37 pm 21:37 Cloudy 36 2.2 33 0.6 89 89 WSW 13 20 29.80 1009 10 16 0.00 0.00
9:53 pm 21:53 Cloudy 37 2.8 33 0.6 85 85 WSW 13 20 29.79 1009 10 16 0.00 0.00
10:53 pm 22:53 Cloudy 36 2.2 33 0.6 89 89 WSW 12 19 29.80 1009 10 16 0.00 0.00
11:15 pm 23:15 Cloudy 36 2.2 33 0.6 89 89 WSW 14 22 29.83 1010 10 16 0.00 0.00
11:53 pm 23:53 Cloudy 36 2.2 33 0.6 89 89 WSW 15 24 29.82 1010 10 16 0.00 0.00

Powered by AerisWeather